Tracking 28052 objects as of 25-Sep-2023
HD Live streaming from Space Station
objects crossing your sky now

STARLINK-4536

Track STARLINK-4536 now!
10-day predictions
STARLINK-4536 is classified as:


NORAD ID: 53783
Int'l Code: 2022-111L
Perigee: 545.7 km
Apogee: 548.0 km
Inclination: 53.2 °
Period: 95.4 minutes
Semi major axis: 6917 km
RCS: Unknown
Launch date: September 11, 2022
Source: United States (US)
Launch site: AIR FORCE EASTERN TEST RANGE (AFETR)
Your satellite tracking list
Your tracking list is empty




NASA's NSSDC Master Catalog

Two Line Element Set (TLE):
1 53783U 22111L   23267.57616160  .00014965  00000-0  95607-3 0  9990
2 53783  53.2181 341.3393 0001627  86.0346 274.0832 15.08850082 57451
Source of the keplerian elements: AFSPC